Regional Weather Roundup
Issued by NWS

Home | Current Version | Previous Version | Graphics & Text | Print | Product List | Glossary On
Versions: 1 2 3 4 5 6 7 8 9 10 11 12 13 14 15 16 17 18 19 20 21 22 23 24 25 26 27 28 29 30 31 32 33 34 35 36 37 38 39 40 41 42 43 44 45 46 47 48 49 50
239
ASUS43 KLSX 191257
RWRMO

WEATHER SUMMARY FOR MISSOURI
NATIONAL WEATHER SERVICE SPRINGFIELD MO
700 AM CST MON FEB 19 2018

NOTE: "FAIR" INDICATES FEW OR NO CLOUDS BELOW 12,000 FEET WITH NO
       SIGNIFICANT WEATHER AND/OR OBSTRUCTIONS TO VISIBILITY.
       CURRENT SKY AND/OR WEATHER CONDITIONS ARE NOT AVAILABLE FOR
       CHILLICOTHE AND FARMINGTON.

MOZ001>031-035>038-043-044-053-054-191400-
...NORTHERN AND WESTERN MISSOURI...

CITY           SKY/WX    TMP DP  RH WIND       PRES   REMARKS
KANSAS CTY INT CLOUDY    63  59  87 S21G28    29.62R
LEE`S SUMMIT   CLOUDY    61  60  97 S23G33    29.65S
ST JOSEPH      CLOUDY    52  52 100 CALM      29.60S FOG
CHILLICOTHE      N/A     52  51  97 SE5       29.66S

$$
MOZ066>068-077>081-088>096-101>105-191400-
...SOUTHWEST MISSOURI...

CITY           SKY/WX    TMP DP  RH WIND       PRES   REMARKS
SPRINGFIELD    CLOUDY    57  55  93 S18       29.81S
JOPLIN         LGT RAIN  60  60 100 S26G38    29.77S
BRANSON        TSTM      59  55  88 S13G21    29.88R

$$
MOZ032>034-039>042-045>050-055>058-069>072-191400-
...CENTRAL MISSOURI...

CITY           SKY/WX    TMP DP  RH WIND       PRES   REMARKS
COLUMBIA       NOT AVBL
JEFFERSON CITY CLOUDY    60  54  80 S15G26    29.77S
ROLLA          TSTM      57  56  96 S16G30    29.83F FOG
SEDALIA        CLOUDY    63  58  83 S20G28    29.72S
WARRENSBURG    CLOUDY    61  55  82 S16G25    29.68S

$$
MOZ051-052-059>065-191400-
...EAST CENTRAL MISSOURI...

CITY           SKY/WX    TMP DP  RH WIND       PRES   REMARKS
ST LOUIS INTL  CLOUDY    59  56  89 S18G25    29.82F
ST CHARLES     CLOUDY    59  55  87 S16       29.82R

$$
MOZ072>076-082>087-097>100-106>115-191400-
...SOUTH CENTRAL AND SOUTHEAST MISSOURI...

CITY           SKY/WX    TMP DP  RH WIND       PRES   REMARKS
CAPE GIRARDEAU LGT RAIN  58  56  93 S18G31    29.99F
POPLAR BLUFF   LGT RAIN  58  57  97 S14G20    30.01R
WEST PLAINS    CLOUDY    55  54  96 S13G22    29.93S

$$



USA.gov is the U.S. government's official web portal to all federal, state and local government web resources and services.